Regional Weather Roundup
Issued by NWS

Home | Current Version | Previous Version | Text Only | Print | Product List | Glossary On
Versions: 1 2 3 4 5 6 7 8 9 10 11 12 13 14 15 16 17 18 19 20 21 22 23 24 25 26 27 28 29 30 31 32 33 34 35 36 37 38 39 40 41 42 43 44 45 46 47 48 49 50
000
ASUS45 KABQ 012310
RWRNM
NEW MEXICO REGIONAL WEATHER ROUNDUP
NATIONAL WEATHER SERVICE ALBUQUERQUE NM
500 PM MDT WED JUL 01 2015

NOTE: "FAIR" MEANS FEW OR NO CLOUDS BELOW 12,000 FEET AGL WITH NO
       SIGNIFICANT WEATHER OR OBSTRUCTIONS TO VISION.

      THIS PRODUCT IS RELEASED AS TWO VERSIONS.  ONE VERSION NEAR
      THE TOP OF THE HOUR CONTAINING PRELIMINARY DATA FROM ALBUQUERQUE
      AND OTHER STATIONS.  A FINAL VERSION WITH ADDITIONAL DATA IS
      ISSUED ABOUT 10 MINUTES AFTER THE HOUR.

NMZ501-503-504-510>518-020000-
NORTHWEST PLATEAU/NORTHCENTRAL MOUNTAINS

CITY           SKY/WX    TMP DP  RH WIND       PRES   REMARKS
FARMINGTON     SUNNY     97  39  13 SW6       30.02F
LOS ALAMOS     PTSUNNY   87  42  21 SE12G17   30.20F
SANTA FE       PTSUNNY   90  44  20 E22G29    30.12F
TAOS           CLOUDY    82  46  28 SE14      30.23R
ANGEL FIRE     FAIR      71  51  49 N5        30.36S

$$
NMZ402-403-502-505>509-020000-
WESTCENTRAL MOUNTAINS/SOUTHWEST MOUNTAINS

CITY           SKY/WX    TMP DP  RH WIND       PRES   REMARKS
GALLUP         CLOUDY    86  48  26 CALM      30.12F
GRANTS         PTSUNNY   94  40  15 SE15G21   30.13F
SILVER CITY      N/A     91  41  17 SW3       30.10F

$$
NMZ407-409-411-412-020000-
SOUTHERN DESERTS

CITY           SKY/WX    TMP DP  RH WIND       PRES   REMARKS
LORDSBURG      FAIR      97  41  14 S8        29.99F
DEMING         SUNNY     94  45  18 CALM      30.00F
LAS CRUCES     SUNNY     95  39  14 SW5       30.02F
HOLLOMAN AFB   SUNNY     94  47  19 S6        29.97F
ALAMOGORDO     SUNNY     93  45  18 SW10      29.99F
T OR C         SUNNY     94  42  16 S9        30.02F

$$
NMZ519>523-020000-
CENTRAL VALLEYS/CENTRAL HIGHLANDS

CITY           SKY/WX    TMP DP  RH WIND       PRES   REMARKS
ALBUQUERQUE    MOSUNNY   93  47  20 W5        30.04F
DOUBLE EAGLE   PTSUNNY   93  46  20 SE3       30.08F
MORIARTY ARPT    N/A     90  40  17 SE9G16    30.13S
CLINES CORNERS MOSUNNY   87  42  20 E13G23    30.20F
BELEN          FAIR      96  41  15 S14G20    30.03F
SOCORRO        FAIR      96  40  14 SE14G20   30.02F

$$
NMZ524>526-539-540-020000-
SOUTHCENTRAL MOUNTAINS

CITY           SKY/WX    TMP DP  RH WIND       PRES   REMARKS
RUIDOSO        SUNNY     84  41  21 SE14      30.23S

$$
NMZ527>531-020000-
NORTHEAST HIGHLANDS/NORTHEAST PLAINS

CITY           SKY/WX    TMP DP  RH WIND       PRES   REMARKS
LAS VEGAS      PTSUNNY   82  50  32 NE5       30.21F
RATON          CLOUDY    85  50  29 VRB3      30.17S
CLAYTON        MOSUNNY   94  49  21 VRB5      30.05F

$$
NMZ532>537-020000-
EASTCENTRAL PLAINS

CITY           SKY/WX    TMP DP  RH WIND       PRES   REMARKS
TUCUMCARI      SUNNY     99  47  17 SE6       29.95F HX  95
CANNON AFB     NOT AVBL
CLOVIS AIRPORT MOSUNNY   91  52  25 S6          N/A

$$
NMZ028-029-538-020000-
SOUTHEAST PLAINS

CITY           SKY/WX    TMP DP  RH WIND       PRES   REMARKS
ROSWELL        SUNNY     96  48  19 SE9       29.97F
ARTESIA        SUNNY     93  54  26 SE13      29.97F
CARLSBAD       SUNNY     96  55  25 SE13G22   29.94F
HOBBS          MOSUNNY   90  55  31 SE12      30.02F


$$



USA.gov is the U.S. government's official web portal to all federal, state and local government web resources and services.